Regional Weather Roundup
Issued by NWS

Home | Current Version | Previous Version | Graphics & Text | Print | Product List | Glossary On
Versions: 1 2 3 4 5 6 7 8 9 10 11 12 13 14 15 16 17 18 19 20 21 22 23 24 25 26 27 28 29 30 31 32 33 34 35 36 37 38 39 40 41 42 43 44 45 46 47 48 49 50
000
ASUS43 KBIS 231110
RWRND

NORTH DAKOTA REGIONAL WEATHER ROUNDUP
NATIONAL WEATHER SERVICE BISMARCK ND
600 AM CDT SUN JUL 23 2017

NOTE: "FAIR" INDICATES FEW OR NO CLOUDS BELOW 12,000 FEET WITH NO
SIGNIFICANT WEATHER AND/OR OBSTRUCTIONS TO VISIBILITY.


NDZ001>003-009>011-017-231200-
NORTHWEST NORTH DAKOTA

CITY           SKY/WX    TMP DP  RH WIND       PRES   REMARKS
WILLISTON      CLEAR     56  51  84 CALM      30.07R
MINOT          CLEAR     55  52  89 SW8       30.04S
MINOT AFB      CLEAR     51  50  97 W7        30.04R
$$

NDZ018>021-031>035-040>046-231200-
SOUTHWEST NORTH DAKOTA

CITY           SKY/WX    TMP DP  RH WIND       PRES   REMARKS
BISMARCK       CLEAR     58  55  90 W6        30.06R
DICKINSON      PTCLDY    54  51  90 CALM      30.08R
GARRISON         N/A     51  50  96 NW8       30.06R
HETTINGER ARPT CLEAR     51  48  89 CALM      30.11S
$$

NDZ004>008-012>016-024-026-027-054-231200-
NORTHEAST NORTH DAKOTA

CITY           SKY/WX    TMP DP  RH WIND       PRES   REMARKS
GRAND FORKS    CLOUDY    63  60  90 N16       29.94R
GRND FRKS AFB  CLOUDY    61  60  97 N8        29.95R
DEVILS LAKE    CLEAR     56  55  97 N6        30.01S
$$

NDZ022-023-025-028>030-036>039-047>053-231200-
SOUTHEAST NORTH DAKOTA

CITY           SKY/WX    TMP DP  RH WIND       PRES   REMARKS
FARGO          CLOUDY    62  60  93 NW12      29.94R
JAMESTOWN      CLEAR     58  56  93 NW6       30.00R
$$





USA.gov is the U.S. government's official web portal to all federal, state and local government web resources and services.